Rochester, NY

7:58 AM EST on December 07, 2019 (GMT -0500)
Greater Rochester International

Weather History for KROC - May, 2019

Change the Weather History Date:

Saturday, May 25, 2019

  Actual Average Record
Temperature  
Mean Temperature 69 °F 60 °F  
Max Temperature 85 °F 70 °F 88 °F (1904)
Min Temperature 52 °F 49 °F 32 °F (1956)
Degree Days  
Heating Degree Days 0 7  
Month to date heating degree days 245 242  
Since 1 July heating degree days 6369 6545  
Cooling Degree Days 4 1  
Month to date cooling degree days 8 16  
Year to date cooling degree days 8 20  
Growing Degree Days 18 (Base 50)    
Moisture  
Dew Point 57 °F    
Average Humidity 68    
Maximum Humidity 93    
Minimum Humidity 43    
Precipitation  
Precipitation 0.21 in 0.09 in 1.74 in (1943)
Month to date precipitation 2.49 2.31  
Year to date precipitation 12.42 11.90  
Snow  
Snow 0.00 in 0.00 in 0.00 in ()
Month to date snowfall 0.0 0.4  
Since 1 July snowfall 97.1 99.5  
Snow Depth 0.00 in    
Sea Level Pressure  
Sea Level Pressure 29.99 in    
Wind  
Wind Speed 8 mph (SSW)    
Max Wind Speed 38 mph    
Max Gust Speed 49 mph    
Visibility 9 miles    
Events Rain , Thunderstorm    
T = Trace of Precipitation, MM = Missing Value Source: NWS Daily Summary

Daily Weather History Graph

Daily Weather History Graph

Search for Another Location

Airport or City:

Astronomy

May. 25, 2019 Rise Set
Actual Time 5:38 AM EDT 8:37 PM EDT
Civil Twilight 5:04 AM EDT 9:11 PM EDT
Nautical Twilight 4:21 AM EDT 9:54 PM EDT
Astronomical Twilight 3:30 AM EDT 10:45 PM EDT
Moon 1:35 AM EDT (5/25) 11:37 AM EDT (5/25)
Length of Visible Light 16h 06m
Length of Day
14h 58m
Waning Gibbous, 60% of the Moon is Illuminated
May 25
Waning Gibbous
May 26
Last Quarter
Jun 3
New
Jun 10
First Quarter
Jun 17
Full

Hourly Weather History & Observations

Time (EDT) Temp. Heat Index Dew Point Humidity Pressure Visibility Wind Dir Wind Speed Gust Speed Precip Events Conditions
12:54 AM 55.9 °F - 48.9 °F 77% 30.16 in 10.0 mi ESE 6.9 mph - N/A   Clear
1:54 AM 55.9 °F - 48.9 °F 77% 30.15 in 10.0 mi Calm Calm - N/A   Scattered Clouds
2:54 AM 55.0 °F - 48.9 °F 80% 30.13 in 10.0 mi Calm Calm - N/A   Partly Cloudy
3:54 AM 52.0 °F - 48.0 °F 86% 30.14 in 10.0 mi SW 3.5 mph - N/A   Clear
4:54 AM 52.0 °F - 48.0 °F 86% 30.14 in 10.0 mi Calm Calm - N/A   Clear
5:54 AM 52.0 °F - 48.0 °F 86% 30.11 in 10.0 mi SE 5.8 mph - N/A   Clear
6:54 AM 55.0 °F - 48.9 °F 80% 30.11 in 10.0 mi SSW 4.6 mph - N/A   Mostly Cloudy
7:54 AM 59.0 °F - 48.9 °F 69% 30.08 in 10.0 mi South 6.9 mph - N/A   Mostly Cloudy
8:54 AM 62.1 °F - 51.1 °F 67% 30.07 in 10.0 mi SSW 8.1 mph - N/A   Mostly Cloudy
9:54 AM 64.0 °F - 52.0 °F 65% 30.07 in 10.0 mi SW 6.9 mph - N/A   Overcast
10:24 AM 62.1 °F - 55.0 °F 78% 30.07 in 8.0 mi SW 4.6 mph - 0.00 in Rain , Thunderstorm Thunderstorms and Rain
10:31 AM 61.0 °F - 55.9 °F 83% 30.07 in 1.8 mi WSW 3.5 mph - 0.03 in Rain , Thunderstorm Heavy Thunderstorms and Rain
10:44 AM 61.0 °F - 55.9 °F 83% 30.06 in 3.0 mi SSW 5.8 mph - 0.12 in Rain , Thunderstorm Thunderstorms and Rain
10:54 AM 61.0 °F - 55.9 °F 83% 30.07 in 5.0 mi South 5.8 mph - 0.15 in Rain , Thunderstorm Thunderstorms and Rain
11:19 AM 61.0 °F - 57.9 °F 90% 30.04 in 10.0 mi SSE 5.8 mph - 0.02 in Rain Light Rain
11:54 AM 64.9 °F - 59.0 °F 81% 30.04 in 10.0 mi SE 3.5 mph - 0.02 in Rain Light Rain
12:54 PM 66.9 °F - 60.1 °F 79% 29.99 in 10.0 mi SE 8.1 mph - 0.00 in   Overcast
1:54 PM 73.0 °F - 60.1 °F 64% 29.94 in 10.0 mi SE 11.5 mph - N/A   Mostly Cloudy
2:54 PM 77.0 °F - 61.0 °F 58% 29.89 in 10.0 mi SE 10.4 mph - N/A   Mostly Cloudy
3:54 PM 78.1 °F - 64.9 °F 64% 29.86 in 10.0 mi SSE 8.1 mph - N/A   Scattered Clouds
4:54 PM 84.9 °F 88.2 °F 68.0 °F 57% 29.84 in 10.0 mi West 10.4 mph - N/A   Mostly Cloudy
5:54 PM 84.0 °F 83.8 °F 59.0 °F 43% 29.81 in 10.0 mi West 12.7 mph 23.0 mph N/A   Mostly Cloudy
6:54 PM 82.9 °F 82.8 °F 59.0 °F 44% 29.83 in 10.0 mi West 15.0 mph 24.2 mph N/A   Mostly Cloudy
7:41 PM 71.1 °F - 62.1 °F 73% 29.88 in 3.0 mi NW 29.9 mph 48.3 mph 0.00 in Rain , Thunderstorm Heavy Thunderstorms and Rain
7:48 PM 68.0 °F - 64.4 °F 88% 29.89 in 2.5 mi NNW 25.3 mph 43.7 mph 0.00 in Rain , Thunderstorm Light Thunderstorms and Rain
7:54 PM 66.9 °F - 64.0 °F 90% 29.89 in 5.0 mi NNW 19.6 mph 32.2 mph 0.02 in Rain , Thunderstorm Light Thunderstorms and Rain
8:28 PM 66.0 °F - 62.1 °F 87% 29.87 in 10.0 mi West 9.2 mph - 0.02 in Rain Light Rain
8:54 PM 66.0 °F - 62.1 °F 87% 29.86 in 10.0 mi West 9.2 mph - 0.02 in Rain Light Rain
9:54 PM 66.0 °F - 63.0 °F 90% 29.88 in 10.0 mi SW 8.1 mph - 0.00 in   Mostly Cloudy
10:54 PM 66.0 °F - 63.0 °F 90% 29.90 in 10.0 mi SW 10.4 mph - N/A   Mostly Cloudy
11:54 PM 64.9 °F - 62.1 °F 90% 29.90 in 10.0 mi SW 8.1 mph - N/A   Mostly Cloudy